Regional Weather Roundup
Issued by NWS

Home | Current Version | Previous Version | Text Only | Print | Product List | Glossary On
Versions: 1 2 3 4 5 6 7 8 9 10 11 12 13 14 15 16 17 18 19 20 21 22 23 24 25 26 27
000
ASUS45 KPSR 291010
RWRAZ

ARIZONA HOURLY REGIONAL WEATHER ROUNDUP
NATIONAL WEATHER SERVICE PHOENIX AZ
300 AM MST THU SEP 29 2016

NOTE: FAIR INDICATES FEW OR NO CLOUDS BELOW 12,000 FEET WITH NO
SIGNIFICANT WEATHER AND/OR OBSTRUCTIONS TO VISIBILITY.

AZZ001>003-036-291100-
NORTHWEST ARIZONA

CITY           SKY/WX    TMP DP  RH WIND       PRES   REMARKS
BULLHEAD CITY  CLEAR     77  54  44 CALM      29.98R
KINGMAN        MOCLDY    67  47  48 SE9       30.14F
$$

AZZ004>008-015-016-018-291100-
NORTH CENTRAL ARIZONA

CITY           SKY/WX    TMP DP  RH WIND       PRES   REMARKS
GRAND CANYON   CLOUDY    55  51  86 E6        30.37F
PRESCOTT       CLOUDY    58  58 100 CALM      30.27R
FLAGSTAFF      CLOUDY    51  51 100 CALM      30.39S
PAYSON         LGT RAIN  61  55  82 CALM      30.31R
PAGE           CLOUDY    62  58  86 CALM      30.28S
$$

AZZ009>014-017-291100-
NORTHEAST ARIZONA

CITY           SKY/WX    TMP DP  RH WIND       PRES   REMARKS
WINSLOW        CLOUDY    60  57  89 SW5       30.30R
SAINT JOHNS    CLOUDY    57  54  89 W5        30.32S
WINDOW ROCK    LGT RAIN  55  52  89 NE3       30.41S
SHOW LOW       CLOUDY    55  50  82 CALM      30.38S
$$

AZZ023-291100-
GREATER PHOENIX AREA

CITY           SKY/WX    TMP DP  RH WIND       PRES   REMARKS
PHOENIX        CLOUDY    82  57  42 E9        30.00S
BUCKEYE        CLOUDY    82  57  42 E10       30.01R
DEER VALLEY    CLOUDY    81  56  42 E3        30.03R
SCOTTSDALE     CLOUDY    80  60  50 W3        30.04S
MESA-GATEWAY   CLOUDY    77  59  53 SE5       30.04R
$$

AZZ027-028-291100-
SOUTHWEST MARICOPA COUNTY AND PINAL COUNTY

CITY           SKY/WX    TMP DP  RH WIND       PRES   REMARKS
CASA GRANDE    CLOUDY    79  57  47 CALM      30.06R
$$

AZZ503-504-507>509-291100-
SOUTHEAST ARIZONA

CITY           SKY/WX    TMP DP  RH WIND       PRES   REMARKS
TUCSON         CLOUDY    71  64  78 NW3       30.11S
NOGALES        CLOUDY    66  57  72 CALM      30.17S
DOUGLAS        PTCLDY    61  55  81 N5        30.19F
SAFFORD        CLOUDY    67  62  84 W9        30.14S
$$

AZZ020-021-025-026-031-291100-
SOUTHWEST ARIZONA

CITY           SKY/WX    TMP DP  RH WIND       PRES   REMARKS
YUMA           CLOUDY    79  61  53 SE8       29.94
$$

CAZ031-033-041-043-047-048-061-291100-
SOUTHERN CALIFORNIA

CITY           SKY/WX    TMP DP  RH WIND       PRES   REMARKS
DOWNTOWN L.A.  CLEAR     72  62  71 CALM      29.95S
L.A. AIRPORT   PTCLDY    70  63  78 E5        29.96R
SAN DIEGO      PTCLDY    74  52  46 CALM      29.96S
BURBANK        CLEAR     74  55  51 E3        29.97S
ONTARIO        CLEAR     72  52  49 NE5       29.99S
RIVERSIDE      CLEAR     71  53  52 CALM      29.99R
PALM SPRINGS   CLEAR     77  51  40 NW7       29.96S
EL CENTRO NAS  CLEAR     73  52  47 S7        29.93S
IMPERIAL       CLEAR     78  52  40 S6        29.91R
BLYTHE         CLEAR     77  50  38 CALM      29.95R
NEEDLES        PTCLDY    79  53  40 CALM      29.98S
$$

NVZ020-UTZ003-291100-
SOUTHERN NEVADA-UTAH

CITY           SKY/WX    TMP DP  RH WIND       PRES   REMARKS
LAS VEGAS      CLOUDY    74  46  36 S5        30.07S
SALT LAKE CITY MOCLDY    63  50  62 S8        30.17S
$$

NMZ009-TXZ055-291100-
NEW MEXICO-WEST TEXAS

CITY           SKY/WX    TMP DP  RH WIND       PRES   REMARKS
ALBUQUERQUE    CLOUDY    65  34  31 NW8       30.35S
EL PASO        PTCLDY    68  55  63 CALM      30.24S
$$


........................KEY........................
SKY/WX - SKY CONDITION/WEATHER
TMP    - TEMPERATURE IN FAHRENHEIT
DP     - DEW POINT IN FAHRENHEIT
RH     - RELATIVE HUMIDITY IN PERCENT
WIND   - DIRECTION AND SPEED IN MILES PER HOUR (MPH)
VRB    - VARIABLE WIND DIRECTION
PRES   - MEAN SEA LEVEL PRESSURE IN INCHES OF MERCURY
         F - FALLING PRESSURE   R - RISING PRESSURE
         S - STEADY PRESSURE
VSB    - VISIBILITY IN MILES
HX     - HEAT INDEX IN FAHRENHEIT
WCI    - WIND CHILL INDEX IN FAHRENHEIT
TC     - TEMPERATURE IN CELSIUS WHICH IS ALSO KNOWN AS
         TEMPERATURE IN CENTIGRADE
AFB    - AIR FORCE BASE
         LUKE AFB IS LUKE AIR FORCE BASE
         DAVIS-MONTHAN IS DAVIS-MONTHAN AIR FORCE BASE
NAS    - NAVAL AIR STATION
         EL CENTRO NAS IS EL CENTRO NAVAL AIR STATION
N/A    - NOT AVAILABLE





USA.gov is the U.S. government's official web portal to all federal, state and local government web resources and services.